Location: Bremen
(53.0793°N, 8.8017°E)
Time: 10:47:13
(UTC+01:00)

Transit 2A - Pass Details

Date: 30 November 2021
Orbit: 591 x 967 km, 66.7° (Epoch: 23 January)

Event Time Altitude Azimuth Distance (km) Brightness Sun altitude
Exits shadow 03:50:00 23° 22° (NNE) 1,915 8.3 -38.5°
Drops below altitude 10° 03:52:35 10° 37° (NE) 2,696 9.3 -38.1°
Sets 03:55:25 0° 45° (NE) 3,661 10.2 -37.7°
